Temperature
18 18 18 18 18 18 18 18 18 18 18 18 18 18 17 17 17 18 18 18 18 18 18 18 17 17 17 17 17 17 17 17 17 17 17 17 17 17 16 16 16 16 16
18 18 18 18 18 18 18 18 18 18 18 18 18 17 17 17 17 17 17 18 18 18 17 17 17 17 17 17 17 17 17 17 17 17 17 17 17 17 16 16 16 16 16
18 18 18 18 18 18 18 18 18 18 18 18 18 18 18 17 17 17 17 17 17 17 17 17 17 17 17 17 17 17 17 17 17 17 17 17 17 17 16 16 16 16 16
18 18 18 18 18 18 18 18 18 18 18 18 18 18 18 17 17 17 17 17 17 17 17 17 17 17 17 17 17 17 17 17 17 17 17 16 16 16 16 16 16 16 16
18 18 18 18 18 18 18 18 18 18 18 18 18 18 18 17 17 17 17 17 17 17 17 17 17 17 17 17 17 17 17 17 17 17 16 16 16 16 16 16 16 16 16
18 18 18 18 18 18 18 18 18 18 18 18 18 18 18 18 17 17 17 17 17 17 17 17 17 17 17 17 17 17 17 17 17 17 16 16 16 16 16 16 16 16 16
18 18 18 18 18 18 18 17 17 17 18 17 18 18 18 18 18 17 17 17 17 17 17 17 17 17 17 17 17 17 17 17 17 16 16 16 16 16 16 16 16 16 16
18 18 18 18 18 18 17 17 17 17 17 17 18 18 18 18 17 18 17 17 17 17 17 17 17 17 16 17 17 17 17 17 17 16 16 16 16 16 16 16 16 16 16
18 18 18 18 18 17 17 17 17 17 17 17 18 18 19 19 19 18 17 17 17 17 17 17 17 17 16 16 16 16 17 17 16 16 16 16 16 16 16 16 16 16 16
18 18 18 18 18 17 18 17 17 17 17 17 17 17 17 18 19 19 18 18 17 17 17 17 17 17 16 16 16 17 17 17 16 16 16 16 16 16 16 16 16 16 16
18 18 18 18 18 17 18 18 17 17 17 17 17 17 17 17 18 18 19 18 18 17 17 17 17 17 16 16 16 16 16 16 16 16 16 16 16 16 16 16 16 16 16
18 18 18 18 17 17 18 18 17 17 17 17 17 17 17 18 18 18 18 18 18 18 17 17 17 16 16 16 16 16 16 16 16 16 16 16 16 16 16 16 16 16 16
18 18 18 18 17 17 17 17 17 17 17 17 17 17 17 17 17 17 18 18 18 18 17 17 16 16 16 16 16 16 16 16 16 16 16 16 16 16 16 16 16 16 16
18 18 18 18 17 17 17 17 17 17 17 17 17 17 17 17 17 17 17 17 18 18 17 17 17 16 16 16 16 16 15 16 16 15 15 15 15 15 15 15 16 16 16
18 18 18 17 17 17 17 17 17 17 17 17 17 16 16 16 16 16 16 17 17 18 18 17 16 16 16 16 16 15 15 15 15 15 15 15 15 15 15 15 15 15 15
18 18 18 17 17 17 17 17 17 17 16 16 16 16 16 16 16 16 16 16 16 17 17 17 16 16 16 16 15 15 15 15 15 15 15 15 15 15 15 15 15 15 15
18 18 18 18 17 17 17 17 16 16 16 16 16 16 16 16 16 16 16 16 16 16 16 16 16 16 15 15 15 15 15 15 15 15 15 15 15 15 15 15 15 15 15
18 18 18 18 17 17 17 17 16 16 16 16 16 16 16 16 16 16 16 16 16 16 16 16 16 15 15 15 14 15 15 15 15 15 15 14 14 14 14 14 14 14 14
18 18 18 18 17 17 17 17 16 16 16 16 16 16 16 15 15 15 15 16 16 16 15 16 16 15 15 15 14 15 15 15 15 15 14 14 14 14 14 14 14 14 14
18 18 18 18 17 17 17 16 16 16 16 16 16 16 15 15 15 15 15 15 15 15 15 15 16 16 15 15 14 15 15 15 14 14 14 14 14 14 14 14 14 14 14
18 18 18 17 17 17 17 16 16 16 16 16 16 16 15 15 16 15 15 15 15 15 15 15 15 15 15 15 15 15 15 15 14 14 14 14 14 14 13 13 13 14 14
18 17 17 17 17 17 17 17 16 16 16 15 15 15 15 15 15 15 15 15 15 14 15 15 15 15 14 14 14 14 14 14 14 14 14 14 14 13 13 13 13 13 13
18 17 17 17 17 17 17 17 16 16 16 15 15 15 15 15 15 15 15 15 15 15 15 14 14 14 14 14 14 14 14 14 14 14 13 14 14 13 13 13 13 13 13
17 17 17 17 17 17 17 16 16 16 15 15 15 15 15 15 15 15 15 14 14 14 14 14 14 14 13 13 13 13 13 13 13 13 13 13 13 13 13 13 13 13 13
17 17 17 17 16 17 17 16 16 15 15 15 15 15 15 15 15 15 14 14 14 14 14 14 14 14 14 14 13 13 13 13 14 14 13 13 13 13 13 13 13 13 13
17 17 17 17 16 16 16 16 16 15 15 15 15 15 15 15 15 15 14 14 14 14 14 14 14 14 13 13 13 13 13 13 13 14 13 13 13 13 13 13 12 12 12
Wind_Speed
3 3 2 2 3 3 4 3 3 4 4 3 3 3 2 2 2 2 6 7 6 5 5 6 5 5 5 5 5 5 5 6 6 6 6 7 7 7 9 10 10 10 10
3 3 3 2 2 2 2 2 3 3 3 3 2 3 2 2 2 2 3 7 8 6 5 5 5 5 5 5 5 5 6 7 7 6 6 6 7 7 8 9 10 10 10
3 2 2 2 2 3 3 3 3 3 3 3 3 3 2 2 2 2 2 3 6 8 6 5 4 5 5 5 5 5 6 6 7 7 7 7 7 7 8 8 9 9 10
3 2 2 2 2 2 3 3 2 2 2 2 2 2 2 2 2 2 2 2 2 4 7 6 4 4 4 4 5 5 5 5 6 6 7 7 8 8 8 9 9 10 10
3 2 2 2 2 1 1 1 2 2 2 1 2 2 2 2 2 2 2 2 2 2 3 7 6 4 3 3 4 4 5 5 5 5 6 7 7 7 8 8 9 10 11
3 1 3 2 1 1 1 2 2 1 1 2 1 2 2 2 2 2 2 2 3 3 2 2 4 6 6 4 3 4 4 4 4 5 5 6 6 7 7 7 8 10 11
3 1 1 2 1 1 1 2 1 2 1 1 2 2 2 3 3 3 2 1 2 2 2 2 2 2 4 7 5 3 2 3 3 4 4 4 4 5 5 7 7 8 9
3 3 2 2 2 2 2 2 1 1 1 1 2 2 2 3 3 2 2 2 2 2 3 3 2 2 2 1 4 4 3 3 3 4 4 3 4 5 6 7 8 9 9
3 2 2 1 1 2 2 2 2 2 1 1 1 2 2 1 2 3 2 2 2 2 2 1 2 2 2 1 1 4 2 3 4 4 4 4 5 5 6 7 7 8 9
4 4 3 2 1 1 2 2 2 2 2 2 1 1 3 3 2 1 3 2 2 2 2 2 2 2 2 2 1 2 1 2 3 3 4 4 5 5 5 6 7 7 8
4 4 4 3 2 2 1 1 2 2 2 2 2 1 1 1 3 3 1 1 1 2 1 2 2 2 2 2 2 2 2 1 2 3 3 4 4 4 5 6 6 7 7
5 5 4 3 3 2 2 2 3 3 2 2 2 2 2 2 2 2 2 3 2 2 2 2 2 2 3 2 1 3 2 1 2 3 3 3 4 4 4 4 5 6 6
5 5 5 4 3 3 3 3 3 3 3 3 3 2 2 3 2 3 3 3 3 2 2 3 2 2 3 2 1 2 3 3 3 3 3 3 4 4 4 4 4 5 5
4 5 5 5 4 4 4 4 4 3 3 3 3 2 3 3 3 3 3 3 4 3 3 2 2 2 2 3 1 4 3 5 4 4 3 3 4 4 4 4 4 4 4
4 6 6 5 5 5 4 4 3 3 3 4 3 3 4 3 3 3 3 4 4 5 3 2 2 2 3 3 2 4 4 4 5 5 4 4 4 4 4 4 4 5 5
5 6 6 5 5 5 5 5 4 3 4 3 3 3 4 3 3 3 4 4 4 5 5 3 3 2 3 4 2 4 5 5 6 6 6 5 4 5 4 4 4 4 5
6 7 7 6 5 5 5 5 5 4 5 4 4 4 4 4 4 4 4 4 4 5 5 4 3 2 3 5 4 5 6 5 5 8 7 6 5 5 5 5 5 5 5
7 7 7 7 6 6 6 6 6 5 5 5 5 4 4 4 4 4 4 4 4 4 6 5 4 4 3 4 4 5 5 5 4 6 8 7 6 5 5 5 5 5 5
7 7 8 7 7 6 6 6 6 6 6 6 5 5 5 5 5 4 5 5 5 5 5 6 5 3 4 3 4 5 4 4 6 5 9 9 7 6 5 5 5 4 5
8 8 8 7 7 7 7 6 6 6 6 6 5 6 6 5 6 6 5 5 5 5 5 6 6 4 4 3 4 5 4 4 4 4 3 5 7 8 7 6 6 5 5
9 8 8 7 7 7 6 7 7 7 6 6 6 6 6 4 4 5 6 5 5 6 6 5 6 5 4 3 4 4 5 5 4 4 4 4 5 5 6 7 7 5 5
8 8 8 8 8 7 5 6 7 7 6 6 6 6 6 6 5 6 6 6 7 7 7 6 6 6 5 5 4 5 5 5 4 2 4 4 3 4 3 3 3 4 4
9 8 8 7 7 6 6 7 7 7 7 6 6 6 6 4 5 5 6 9 8 8 8 8 8 8 6 5 6 6 5 6 5 3 4 5 4 4 3 2 4 5 5
8 7 7 8 7 7 8 8 8 8 7 7 6 6 6 5 5 5 6 7 7 7 8 8 7 8 7 5 6 6 6 6 6 5 4 6 4 4 3 3 6 7 7
7 7 7 8 8 7 8 9 9 7 7 7 7 6 6 6 3 5 7 7 7 6 6 7 6 6 5 5 6 6 5 6 6 4 3 5 4 4 4 3 5 9 9
7 7 7 8 8 7 8 9 9 7 6 6 6 6 6 5 4 5 7 7 7 6 6 6 7 8 8 8 8 7 6 6 6 5 2 3 4 4 4 3 3 4 6
Wind_Direction
132 128 118 124 135 133 145 136 123 126 132 135 132 129 109 92 103 122 123 131 140 154 164 172 180 188 195 197 203 211 221 225 219 219 221 222 223 223 223 225 228 228 228
117 126 129 132 134 140 124 134 130 136 138 126 133 137 146 150 151 176 147 146 153 157 159 167 178 184 196 203 211 222 227 232 229 225 224 223 224 224 224 225 228 231 231
125 137 130 146 122 136 146 148 134 143 152 147 147 151 155 163 157 172 180 163 155 158 160 172 189 197 202 207 211 220 226 231 230 227 230 231 228 229 228 228 231 232 234
140 148 131 119 122 153 153 141 152 144 141 150 147 155 149 153 166 180 180 175 165 157 161 167 182 193 202 209 213 220 224 231 235 233 234 233 232 232 231 235 239 240 240
136 145 115 103 159 146 132 144 119 147 155 158 173 159 160 165 173 179 177 180 170 184 165 156 174 187 196 209 223 229 228 233 238 237 239 238 233 230 233 236 241 243 243
140 142 138 133 165 134 116 94 122 129 179 189 193 143 163 163 172 161 196 186 186 189 188 181 184 181 183 194 213 225 229 233 233 230 236 243 239 237 237 240 246 245 244
152 168 134 136 165 120 114 139 164 165 194 182 185 164 165 177 168 170 199 204 185 194 194 201 226 220 172 176 185 198 219 235 241 240 241 248 247 249 247 244 247 248 246
180 172 155 167 137 131 138 145 185 221 197 214 240 213 187 169 184 170 184 199 211 207 206 197 190 205 273 185 140 180 217 232 240 242 245 251 258 258 256 253 251 247 245
193 180 158 153 155 183 150 171 189 205 217 221 274 282 274 198 153 165 181 177 203 231 231 223 212 201 222 238 174 153 186 237 247 250 252 261 260 261 263 262 262 256 248
190 174 165 157 182 174 154 200 167 222 228 228 220 290 320 342 282 179 181 174 196 223 238 259 242 205 218 220 176 75 150 233 253 252 251 260 261 264 264 266 268 265 259
189 183 172 175 189 202 175 204 178 230 228 246 252 238 245 243 269 278 250 229 214 222 231 256 276 261 241 241 233 107 143 212 267 267 254 254 253 258 264 272 272 272 269
189 186 186 185 191 186 182 195 197 202 236 251 268 266 259 267 270 274 272 257 258 244 237 254 268 277 262 256 238 101 145 226 262 265 261 255 249 251 259 273 276 272 272
191 183 189 188 189 186 191 196 200 218 217 220 239 257 268 274 284 282 283 283 274 256 241 245 252 261 274 267 236 163 183 211 240 249 260 257 251 254 264 276 280 274 273
194 177 189 188 186 190 197 198 211 208 209 216 227 255 267 270 272 273 282 284 279 261 233 250 264 257 290 279 300 243 223 196 223 240 252 262 264 256 257 263 271 272 270
192 185 191 191 192 195 203 207 209 217 219 226 226 229 256 264 265 268 270 272 281 283 274 230 253 258 265 271 251 261 259 189 212 231 243 257 266 259 259 257 260 263 258
193 190 192 194 193 197 203 213 212 209 227 233 244 258 265 266 273 269 268 265 267 277 283 287 274 278 298 290 228 265 255 187 207 217 226 236 247 250 253 256 255 257 259
196 196 195 190 193 200 204 212 225 217 228 235 241 241 249 271 270 266 263 264 264 267 271 279 278 269 270 283 288 275 258 238 217 192 205 220 235 246 251 252 253 255 260
202 198 198 196 201 203 208 215 224 223 227 233 240 245 249 245 250 268 269 265 263 265 267 272 277 271 259 263 272 273 273 262 256 177 188 207 222 233 243 244 249 256 263
204 202 201 201 205 209 212 218 222 228 231 236 239 242 246 249 254 260 266 267 265 260 261 265 268 269 268 267 270 271 272 271 266 205 190 200 210 216 226 232 237 247 260
204 203 204 204 208 210 211 216 219 225 231 236 240 243 246 251 258 263 258 261 270 272 263 263 267 266 262 259 266 274 273 250 267 266 249 228 206 205 211 219 226 237 247
206 203 204 205 211 211 213 215 222 225 230 238 241 243 245 248 272 275 277 274 268 265 265 263 266 269 271 277 273 277 281 277 258 268 268 247 221 226 212 208 216 232 238
206 204 204 206 212 216 186 196 223 227 232 237 244 248 243 229 228 230 257 277 280 268 270 273 269 274 277 278 282 280 280 279 280 260 270 268 255 257 241 232 196 209 231
200 203 207 210 213 206 178 198 219 230 231 236 244 250 254 243 234 248 237 232 243 247 257 268 273 277 278 279 278 271 272 278 285 291 281 278 267 264 246 207 179 204 216
201 202 208 214 216 205 185 200 214 227 233 233 236 241 248 251 250 255 255 250 250 242 237 246 263 273 280 284 271 269 272 261 260 260 271 276 274 271 263 224 185 198 207
203 204 207 213 217 208 186 195 208 221 223 228 231 232 236 240 236 251 251 252 252 250 229 228 252 265 281 275 270 267 265 266 269 258 246 269 276 276 263 244 207 196 204
205 207 207 212 215 215 187 190 206 224 223 226 227 228 223 236 225 234 246 254 257 261 262 243 235 236 240 231 224 246 261 267 276 277 246 259 275 276 269 249 235 214 215
Height
1553 1554 1555 1555 1557 1558 1559 1559 1560 1560 1561 1562 1563 1563 1564 1565 1565 1566 1566 1565 1566 1566 1566 1566 1566 1567 1567 1567 1568 1568 1569 1569 1570 1570 1570 1570 1571 1571 1571 1572 1572 1573 1573
1554 1555 1555 1555 1557 1558 1559 1559 1560 1561 1561 1562 1563 1563 1564 1564 1564 1565 1566 1565 1565 1565 1565 1566 1566 1566 1566 1566 1567 1567 1567 1568 1568 1568 1569 1569 1569 1569 1570 1570 1570 1571 1571
1554 1555 1556 1556 1556 1557 1558 1559 1560 1561 1561 1562 1562 1563 1564 1564 1564 1565 1566 1566 1566 1565 1565 1565 1565 1565 1565 1565 1565 1565 1566 1566 1566 1566 1567 1567 1567 1567 1567 1568 1568 1569 1569
1554 1555 1556 1557 1556 1557 1558 1559 1560 1561 1561 1562 1562 1563 1563 1563 1564 1564 1565 1565 1566 1566 1565 1564 1564 1564 1564 1564 1564 1564 1564 1564 1564 1565 1565 1565 1565 1565 1565 1565 1566 1566 1566
1554 1555 1556 1556 1556 1557 1558 1559 1560 1561 1561 1562 1562 1562 1563 1563 1563 1564 1564 1565 1565 1565 1565 1564 1563 1563 1563 1563 1563 1563 1563 1563 1563 1563 1563 1563 1563 1563 1563 1563 1563 1563 1564
1555 1555 1556 1556 1557 1558 1558 1558 1559 1559 1560 1561 1562 1562 1562 1562 1562 1563 1564 1564 1564 1564 1564 1564 1563 1563 1562 1562 1562 1562 1562 1561 1561 1561 1561 1561 1561 1560 1560 1561 1561 1561 1561
1555 1555 1556 1556 1556 1557 1557 1558 1559 1559 1560 1560 1561 1561 1562 1562 1562 1562 1563 1563 1563 1563 1563 1563 1563 1563 1562 1561 1561 1560 1560 1560 1560 1559 1559 1559 1559 1558 1558 1558 1558 1558 1558
1555 1555 1555 1556 1556 1556 1556 1557 1558 1559 1559 1560 1561 1561 1561 1562 1561 1562 1562 1562 1562 1562 1563 1562 1562 1561 1561 1561 1560 1559 1559 1558 1558 1558 1558 1557 1557 1557 1556 1556 1556 1556 1556
1554 1554 1555 1555 1555 1556 1556 1556 1557 1558 1559 1559 1560 1561 1560 1560 1561 1561 1561 1561 1561 1561 1561 1561 1561 1560 1560 1560 1559 1558 1557 1557 1556 1556 1556 1555 1555 1555 1554 1554 1553 1553 1553
1553 1554 1554 1554 1555 1555 1555 1556 1556 1557 1558 1559 1559 1559 1560 1559 1560 1560 1560 1560 1560 1560 1560 1560 1560 1559 1558 1558 1557 1556 1555 1555 1554 1554 1553 1553 1552 1552 1552 1551 1551 1550 1550
1552 1553 1553 1553 1553 1554 1554 1554 1555 1556 1557 1558 1559 1559 1559 1559 1559 1559 1559 1559 1559 1559 1559 1559 1559 1558 1557 1557 1556 1554 1553 1553 1552 1552 1551 1551 1550 1549 1549 1548 1548 1547 1547
1551 1551 1552 1552 1552 1553 1553 1553 1554 1555 1555 1556 1557 1558 1558 1558 1558 1558 1558 1558 1557 1558 1557 1557 1557 1556 1556 1555 1554 1552 1551 1551 1550 1550 1549 1548 1548 1547 1546 1546 1545 1544 1544
1550 1550 1551 1551 1551 1551 1552 1552 1553 1553 1554 1554 1555 1556 1556 1557 1557 1557 1557 1556 1556 1556 1555 1555 1555 1554 1554 1553 1552 1550 1549 1548 1548 1547 1546 1546 1545 1545 1544 1543 1542 1542 1541
1548 1548 1549 1549 1550 1550 1551 1551 1552 1552 1552 1552 1553 1553 1554 1555 1555 1555 1555 1555 1554 1554 1553 1553 1553 1552 1551 1551 1549 1548 1547 1546 1545 1544 1544 1543 1543 1542 1541 1541 1540 1539 1539
1546 1546 1547 1548 1548 1549 1550 1550 1551 1550 1551 1551 1552 1552 1552 1553 1553 1553 1553 1553 1554 1552 1551 1551 1551 1550 1548 1547 1546 1545 1544 1543 1542 1542 1541 1540 1540 1539 1538 1538 1537 1537 1536
1543 1544 1545 1546 1547 1547 1547 1548 1549 1549 1549 1549 1549 1549 1550 1551 1551 1551 1551 1551 1550 1551 1549 1549 1548 1547 1546 1545 1544 1542 1541 1540 1539 1539 1538 1538 1537 1536 1536 1535 1535 1534 1534
1540 1541 1543 1544 1544 1545 1546 1546 1547 1547 1547 1548 1547 1548 1547 1547 1548 1549 1548 1548 1548 1548 1547 1546 1546 1544 1542 1542 1541 1540 1539 1538 1538 1536 1535 1535 1534 1534 1533 1532 1532 1531 1531
1538 1539 1540 1541 1542 1543 1543 1544 1545 1545 1545 1545 1545 1545 1545 1546 1545 1546 1546 1546 1545 1545 1545 1543 1543 1542 1540 1539 1538 1537 1537 1537 1536 1534 1532 1531 1531 1530 1530 1529 1528 1528 1528
1535 1536 1537 1538 1538 1540 1541 1542 1542 1543 1543 1543 1543 1543 1543 1543 1543 1543 1543 1543 1543 1543 1542 1541 1540 1539 1538 1537 1536 1535 1534 1533 1533 1531 1530 1528 1527 1527 1526 1526 1525 1525 1524
1531 1532 1534 1535 1536 1537 1538 1539 1539 1540 1540 1540 1540 1540 1540 1541 1541 1541 1541 1540 1540 1540 1539 1539 1538 1537 1536 1534 1533 1533 1532 1531 1530 1530 1528 1526 1524 1523 1523 1522 1521 1521 1521
1528 1529 1530 1531 1532 1534 1535 1536 1536 1537 1537 1537 1537 1537 1537 1537 1537 1537 1538 1538 1537 1537 1537 1536 1535 1535 1534 1532 1531 1530 1529 1528 1527 1526 1525 1524 1523 1521 1520 1518 1518 1517 1517
1524 1526 1527 1528 1529 1531 1532 1532 1533 1534 1534 1534 1534 1534 1534 1533 1533 1533 1533 1533 1533 1533 1533 1533 1532 1532 1530 1530 1528 1527 1527 1525 1524 1523 1522 1522 1520 1519 1518 1517 1515 1514 1514
1521 1522 1523 1524 1525 1527 1528 1529 1529 1530 1530 1530 1530 1530 1531 1530 1530 1529 1529 1529 1529 1528 1528 1528 1529 1528 1527 1526 1525 1524 1523 1522 1521 1520 1519 1519 1518 1516 1515 1513 1512 1511 1511
1517 1518 1520 1521 1522 1523 1524 1525 1525 1526 1526 1526 1526 1526 1526 1525 1526 1525 1524 1524 1524 1524 1524 1524 1524 1524 1523 1522 1521 1520 1520 1519 1518 1517 1516 1516 1515 1514 1512 1511 1509 1508 1508
1514 1515 1516 1517 1518 1519 1520 1521 1521 1521 1521 1522 1522 1522 1521 1521 1520 1520 1520 1520 1520 1519 1519 1519 1519 1519 1518 1517 1517 1517 1517 1517 1516 1515 1513 1513 1512 1510 1509 1508 1506 1505 1505
1510 1511 1513 1514 1515 1515 1516 1516 1517 1517 1517 1518 1518 1517 1517 1516 1516 1516 1516 1516 1516 1516 1516 1515 1515 1514 1514 1514 1513 1513 1513 1513 1513 1512 1510 1509 1509 1508 1507 1506 1504 1503 1502